When you browse on this site, cookies collect data to enhance your experience and personalize the content and advertising you see.
Visit our Privacy Policy to learn more. By continuing to use the site, you agree to this use of cookies and data.
  • In Switzerland
  • List of Countries
  • For 7 days
  • Water Temperature
  • Satellite Maps
  • Weather Map
  • Weather Widgets
  • user-avatar
    Login

    Hourly Weather Pirna

    Today, 18 July, Thursday

    Time Temperature Precipitation Wind Pressure Humidity
    00:00 +14°C° 0 mm 0 mps 749 mmHg 80%
    01:00 +14°C° 0 mm 0 mps 748 mmHg 81%
    02:00 +14°C° 0 mm 0 mps 748 mmHg 81%
    03:00 +14°C° 0 mm 0 mps 748 mmHg 82%
    04:00 +14°C° 0 mm 0 mps 748 mmHg 82%
    05:00 +15°C° 0 mm 0 mps 748 mmHg 77%
    06:00 +17°C° 0 mm 0 mps 748 mmHg 73%
    07:00 +18°C° 0 mm 0 mps 748 mmHg 68%
    08:00 +20°C° 0 mm 0 mps 749 mmHg 62%
    09:00 +22°C° 0 mm 0 mps 749 mmHg 57%
    10:00 +24°C° 0 mm 0 mps 749 mmHg 51%
    11:00 +26°C° 0.1 mm 1 mps 749 mmHg 50%
    12:00 +26°C° 0.1 mm 1 mps 748 mmHg 49%
    13:00 +27°C° 0.1 mm 1 mps 748 mmHg 49%
    14:00 +26°C° 0.5 mm 1 mps 748 mmHg 51%
    15:00 +26°C° 0.5 mm 1 mps 748 mmHg 54%
    16:00 +26°C° 0.5 mm 1 mps 748 mmHg 56%
    17:00 +25°C° 0.2 mm 1 mps 748 mmHg 60%
    18:00 +24°C° 0.2 mm 1 mps 748 mmHg 64%
    19:00 +21°C° 0.2 mm 0 mps 748 mmHg 68%
    20:00 +22°C° 0 mm 1 mps 748 mmHg 70%
    21:00 +21°C° 0 mm 1 mps 748 mmHg 72%
    22:00 +20°C° 0 mm 1 mps 748 mmHg 74%
    23:00 +20°C° 0 mm 1 mps 748 mmHg 75%

    Tomorrow, 19 July, Friday

    Time Temperature Precipitation Wind Pressure Humidity
    00:00 +19°C° 0 mm 1 mps 748 mmHg 75%
    01:00 +18°C° 0 mm 2 mps 748 mmHg 76%
    02:00 +18°C° 0 mm 2 mps 749 mmHg 78%
    03:00 +17°C° 0 mm 2 mps 749 mmHg 79%
    04:00 +17°C° 0 mm 2 mps 749 mmHg 80%
    05:00 +18°C° 0 mm 2 mps 749 mmHg 78%
    06:00 +20°C° 0 mm 1 mps 749 mmHg 77%
    07:00 +21°C° 0 mm 1 mps 749 mmHg 75%
    08:00 +21°C° 0.5 mm 2 mps 750 mmHg 72%
    09:00 +23°C° 0.5 mm 2 mps 750 mmHg 69%
    10:00 +24°C° 0.5 mm 2 mps 750 mmHg 66%
    11:00 +25°C° 0.7 mm 2 mps 750 mmHg 64%
    12:00 +25°C° 0.7 mm 2 mps 750 mmHg 62%
    13:00 +26°C° 0.7 mm 2 mps 749 mmHg 60%
    14:00 +26°C° 0.3 mm 2 mps 750 mmHg 58%
    15:00 +27°C° 0.3 mm 2 mps 750 mmHg 55%
    16:00 +27°C° 0.3 mm 2 mps 750 mmHg 52%
    17:00 +26°C° 0.2 mm 2 mps 750 mmHg 58%
    18:00 +25°C° 0.2 mm 1 mps 750 mmHg 64%
    19:00 +24°C° 0.2 mm 1 mps 750 mmHg 70%
    20:00 +23°C° 0 mm 1 mps 750 mmHg 73%
    21:00 +22°C° 0 mm 1 mps 750 mmHg 76%
    22:00 +20°C° 0 mm 1 mps 750 mmHg 79%
    23:00 +20°C° 0 mm 1 mps 750 mmHg 80%

    Day after tomorrow, 20 July, Saturday

    Time Temperature Precipitation Wind Pressure Humidity
    00:00 +20°C° 0 mm 1 mps 750 mmHg 81%
    01:00 +19°C° 0 mm 1 mps 751 mmHg 82%
    02:00 +19°C° 0 mm 1 mps 751 mmHg 83%
    03:00 +19°C° 0 mm 1 mps 751 mmHg 84%
    04:00 +19°C° 0 mm 1 mps 751 mmHg 85%
    05:00 +20°C° 0 mm 1 mps 751 mmHg 82%
    06:00 +21°C° 0 mm 1 mps 751 mmHg 79%
    07:00 +22°C° 0 mm 1 mps 751 mmHg 76%
    08:00 +24°C° 0 mm 2 mps 751 mmHg 69%
    09:00 +26°C° 0 mm 2 mps 751 mmHg 62%
    10:00 +27°C° 0 mm 2 mps 751 mmHg 55%
    11:00 +28°C° 0 mm 2 mps 751 mmHg 52%
    12:00 +29°C° 0 mm 3 mps 751 mmHg 49%
    13:00 +30°C° 0 mm 3 mps 751 mmHg 46%
    14:00 +30°C° 0 mm 3 mps 750 mmHg 47%
    15:00 +30°C° 0 mm 2 mps 750 mmHg 48%
    16:00 +30°C° 0 mm 2 mps 750 mmHg 49%
    17:00 +29°C° 0.3 mm 2 mps 750 mmHg 55%
    18:00 +27°C° 0.3 mm 2 mps 750 mmHg 61%
    19:00 +26°C° 0.3 mm 3 mps 750 mmHg 66%
    20:00 +25°C° 0.2 mm 2 mps 750 mmHg 71%
    21:00 +23°C° 0.2 mm 2 mps 751 mmHg 75%
    22:00 +21°C° 0.2 mm 2 mps 751 mmHg 80%
    23:00 +21°C° 0.1 mm 2 mps 751 mmHg 81%

    21 July, Sunday

    Time Temperature Precipitation Wind Pressure Humidity
    00:00 +21°C° 0.1 mm 2 mps 751 mmHg 82%
    01:00 +21°C° 0.1 mm 2 mps 751 mmHg 83%
    02:00 +21°C° 0.1 mm 2 mps 751 mmHg 83%
    03:00 +20°C° 0.1 mm 2 mps 751 mmHg 83%
    04:00 +20°C° 0.1 mm 2 mps 751 mmHg 83%
    05:00 +21°C° 0.1 mm 2 mps 751 mmHg 81%
    06:00 +22°C° 0.1 mm 3 mps 751 mmHg 78%
    07:00 +24°C° 0.1 mm 3 mps 751 mmHg 76%
    08:00 +26°C° 0.1 mm 4 mps 752 mmHg 69%
    09:00 +27°C° 0.1 mm 4 mps 752 mmHg 62%
    10:00 +28°C° 0.1 mm 5 mps 752 mmHg 56%
    11:00 +28°C° 0.2 mm 5 mps 752 mmHg 55%
    12:00 +29°C° 0.2 mm 5 mps 753 mmHg 53%
    13:00 +29°C° 0.2 mm 6 mps 753 mmHg 52%
    14:00 +29°C° 0 mm 6 mps 753 mmHg 51%
    15:00 +28°C° 0 mm 6 mps 753 mmHg 51%
    16:00 +28°C° 0 mm 6 mps 753 mmHg 50%
    17:00 +27°C° 0 mm 5 mps 753 mmHg 56%
    18:00 +26°C° 0 mm 4 mps 754 mmHg 62%
    19:00 +25°C° 0 mm 3 mps 754 mmHg 69%
    20:00 +24°C° 0 mm 2 mps 754 mmHg 73%
    21:00 +22°C° 0 mm 1 mps 755 mmHg 78%
    22:00 +21°C° 0 mm 1 mps 755 mmHg 82%
    23:00 +20°C° 0 mm 1 mps 755 mmHg 83%

    22 July, Monday

    Time Temperature Precipitation Wind Pressure Humidity
    00:00 +20°C° 0 mm 1 mps 756 mmHg 85%
    01:00 +20°C° 0 mm 1 mps 756 mmHg 86%
    02:00 +19°C° 0 mm 1 mps 756 mmHg 87%
    03:00 +19°C° 0 mm 1 mps 756 mmHg 89%
    04:00 +19°C° 0 mm 1 mps 756 mmHg 90%
    05:00 +20°C° 0 mm 1 mps 756 mmHg 86%
    06:00 +21°C° 0 mm 1 mps 757 mmHg 81%
    07:00 +22°C° 0 mm 1 mps 757 mmHg 77%
    08:00 +24°C° 0 mm 2 mps 757 mmHg 71%
    09:00 +25°C° 0 mm 2 mps 757 mmHg 65%
    10:00 +26°C° 0 mm 2 mps 757 mmHg 58%
    11:00 +27°C° 0 mm 2 mps 757 mmHg 55%
    12:00 +28°C° 0 mm 2 mps 757 mmHg 52%
    13:00 +29°C° 0 mm 2 mps 756 mmHg 48%
    14:00 +29°C° 0 mm 2 mps 756 mmHg 48%
    15:00 +29°C° 0 mm 2 mps 756 mmHg 48%
    16:00 +29°C° 0 mm 2 mps 756 mmHg 48%
    17:00 +28°C° 0 mm 2 mps 756 mmHg 55%
    18:00 +27°C° 0 mm 2 mps 756 mmHg 62%
    19:00 +25°C° 0 mm 2 mps 756 mmHg 69%
    20:00 +24°C° 0 mm 2 mps 756 mmHg 72%
    21:00 +23°C° 0 mm 1 mps 756 mmHg 75%
    22:00 +21°C° 0 mm 1 mps 756 mmHg 79%
    23:00 +21°C° 0 mm 1 mps 756 mmHg 80%

    23 July, Tuesday

    Time Temperature Precipitation Wind Pressure Humidity
    00:00 +20°C° 0 mm 1 mps 756 mmHg 80%
    01:00 +19°C° 0 mm 1 mps 756 mmHg 81%
    02:00 +19°C° 0 mm 1 mps 756 mmHg 82%
    03:00 +19°C° 0 mm 1 mps 756 mmHg 83%
    04:00 +18°C° 0 mm 1 mps 756 mmHg 83%
    05:00 +19°C° 0 mm 1 mps 756 mmHg 79%
    06:00 +21°C° 0 mm 1 mps 756 mmHg 74%
    07:00 +22°C° 0 mm 1 mps 756 mmHg 69%
    08:00 +24°C° 0 mm 1 mps 756 mmHg 62%
    09:00 +25°C° 0 mm 2 mps 756 mmHg 56%
    10:00 +26°C° 0 mm 2 mps 756 mmHg 49%
    11:00 +27°C° 0 mm 3 mps 755 mmHg 44%
    12:00 +28°C° 0 mm 3 mps 755 mmHg 39%
    13:00 +29°C° 0 mm 3 mps 755 mmHg 34%
    14:00 +29°C° 0 mm 3 mps 754 mmHg 35%
    15:00 +29°C° 0 mm 3 mps 754 mmHg 36%
    16:00 +29°C° 0 mm 3 mps 754 mmHg 36%
    17:00 +28°C° 0 mm 2 mps 754 mmHg 44%
    18:00 +27°C° 0 mm 2 mps 754 mmHg 51%
    19:00 +25°C° 0 mm 2 mps 754 mmHg 58%
    20:00 +24°C° 0 mm 2 mps 754 mmHg 63%
    21:00 +21°C° 0 mm 2 mps 754 mmHg 69%
    22:00 +20°C° 0 mm 2 mps 754 mmHg 74%
    23:00 +21°C° 0 mm 1 mps 754 mmHg 77%
    Show more